This is the latest recevied weather packets stored in our database for station/object IT9DBI-3. If no packets are shown the sender has not sent any weather packets the latest 10 day(s).
| Time | Temp. | Humidity | Pressure | Rain* | Wind** | Luminosity | Snow |
|---|---|---|---|---|---|---|---|
| 1777968795 | 20.56° C | 56% | 1016.6 hPa | - | - | - | - |
| 1777967588 | 20° C | 61% | 1016.5 hPa | - | - | - | - |
| 1777966386 | 19.44° C | 62% | 1016.6 hPa | - | - | - | - |
| 1777965185 | 18.89° C | 64% | 1016.8 hPa | - | - | - | - |
| 1777963982 | 18.33° C | 66% | 1016.9 hPa | - | - | - | - |
| 1777962780 | 17.78° C | 67% | 1016.8 hPa | - | - | - | - |
| 1777961578 | 17.78° C | 65% | 1016.8 hPa | - | - | - | - |
| 1777960377 | 17.22° C | 66% | 1016.8 hPa | - | - | - | - |
| 1777959176 | 15.56° C | 82% | 1016.8 hPa | - | - | - | - |
| 1777957974 | 15° C | 86% | 1016.7 hPa | - | - | - | - |
| 1777956773 | 14.44° C | 89% | 1016.6 hPa | - | - | - | - |
| 1777955572 | 14.44° C | 89% | 1016.4 hPa | - | - | - | - |
| 1777954370 | 14.44° C | 87% | 1016.2 hPa | - | - | - | - |
| 1777953169 | 15° C | 86% | 1016 hPa | - | - | - | - |
| 1777951968 | 15° C | 86% | 1016 hPa | - | - | - | - |
| 1777950767 | 15° C | 86% | 1016 hPa | - | - | - | - |
| 1777949565 | 15° C | 87% | 1016.1 hPa | - | - | - | - |
| 1777948364 | 15° C | 88% | 1016.3 hPa | - | - | - | - |
| 1777947161 | 13.89° C | 90% | 1016.5 hPa | - | - | - | - |
| 1777944755 | 13.89° C | 88% | 1016.8 hPa | - | - | - | - |
| 1777943554 | 13.89° C | 87% | 1016.9 hPa | - | - | - | - |
| 1777942352 | 14.44° C | 87% | 1016.7 hPa | - | - | - | - |
| 1777941151 | 13.89° C | 90% | 1016.9 hPa | - | - | - | - |
| 1777939950 | 14.44° C | 87% | 1017 hPa | - | - | - | - |
| 1777938749 | 14.44° C | 85% | 1017.4 hPa | - | - | - | - |
* Rain since midnight (hover to see other rain measurements)
** Current wind speed in m/s (hover to see current wind gust speed)